Flag for Ireland Weather past 2 weeks in Limerick, Ireland

Now
57 °F

Partly sunny.


Feels Like: 55 °F
Forecast: 45 / 59 °F
Wind: 8 mph from Northwest

Location: Shannon Airport

Current Time: Sep 2, 2015 at 6:32:17 PM

Latest Report: Sep 2, 2015 at 6:00 PM


Visibility: N/A

Pressure: 30.18 "Hg

Humidity: 72%

Dew point: 48 °F

Location of LimerickLocation

Historic Weather in Limerick — Graph

°F

Limerick temperature yesterday

Maximum temperature yesterday: 61 °F (at 1:00 PM)
Minimum temperature yesterday: 46 °F (at 5:30 AM)
Average temperature yesterday: 54 °F

Past Weeks' High & Low Weather Summary

 TemperatureHumidityPressure
High72 °F (Aug 20, 2:30 PM)100% (Aug 19, 3:00 AM)30.27 "Hg (Aug 19, 3:00 AM)
Low46 °F (Sep 1, 5:30 AM)55% (Aug 24, 2:30 PM)29.33 "Hg (Aug 26, 4:00 AM)
Average58 °F82%29.82 "Hg
* Reported Aug 18 5:00 PM — Sep 2 5:30 PM, Limerick, Weather by CustomWeather, © 2015

Note: Actual official high and low records may vary slightly from our data, if they occured in-between our weather recording intervals... More about our weather records

Advertising

Limerick weather history for previous 24 hours

 ConditionsComfort  
Time TempWeatherWind HumidityBarometerVisibility
5:30 PM
Wed, Sep 2
57 °FPartly sunny.10 mph67%30.18 "HgN/A
5:00 PM57 °FPartly sunny.10 mph67%30.18 "HgN/A
4:30 PM57 °FPartly sunny.12 mph67%30.18 "HgN/A
4:00 PM57 °FPartly sunny.15 mph72%30.18 "HgN/A
3:30 PM57 °FPartly sunny.8 mph67%30.21 "HgN/A
3:00 PM57 °FPartly sunny.9 mph67%30.21 "HgN/A
2:30 PM59 °FPartly sunny.9 mph63%30.21 "HgN/A
2:00 PM59 °FPartly sunny.8 mph63%30.21 "HgN/A
1:30 PM59 °FPartly sunny.12 mph63%30.21 "HgN/A
1:00 PM57 °FPartly sunny.8 mph67%30.21 "HgN/A
12:30 PM57 °FPartly sunny.9 mph67%30.21 "HgN/A
12:00 PM57 °FPartly sunny.8 mph67%30.24 "HgN/A
11:30 AM57 °FPartly sunny.9 mph67%30.24 "HgN/A
11:00 AM55 °FPartly sunny.9 mph77%30.24 "HgN/A
10:30 AM54 °FPartly sunny.8 mph82%30.24 "HgN/A
10:00 AM55 °FPartly sunny.9 mph77%30.24 "HgN/A
9:30 AM54 °FPartly sunny.7 mph82%30.24 "HgN/A
9:00 AM54 °FPartly sunny.7 mph82%30.24 "HgN/A
8:30 AM52 °FPartly sunny.10 mph88%30.24 "HgN/A
8:00 AM50 °FPartly sunny.6 mph88%30.24 "HgN/A
7:30 AM48 °FPassing clouds.6 mph87%30.24 "HgN/A
7:00 AM46 °FPassing clouds.7 mph93%30.24 "HgN/A
6:30 AM46 °FClear.3 mph87%30.24 "Hg10 mi
6:00 AM46 °FClear.6 mph93%30.24 "Hg10 mi
5:00 AM46 °FClear.6 mph93%30.24 "Hg10 mi
4:30 AM46 °FClear.7 mph93%30.24 "Hg10 mi
4:00 AM46 °FClear.6 mph93%30.24 "Hg10 mi
3:30 AM48 °FClear.7 mph87%30.24 "Hg10 mi
3:00 AM48 °FClear.1 mph87%30.24 "Hg10 mi
2:30 AM48 °FClear.5 mph94%30.27 "Hg10 mi
2:00 AM46 °FClear.7 mph93%30.27 "Hg10 mi
1:30 AM46 °FClear.2 mph93%30.27 "Hg10 mi
1:00 AM46 °FClear.5 mph93%30.27 "Hg10 mi
12:30 AM48 °FClear.5 mph87%30.27 "Hg10 mi
12:00 AM48 °FClear.3 mph94%30.27 "Hg10 mi
10:30 PM
Tue, Sep 1
52 °FClear.2 mph82%30.27 "Hg10 mi
10:00 PM54 °FPassing clouds.6 mph82%30.27 "HgN/A
9:30 PM54 °FPassing clouds.8 mph88%30.27 "HgN/A
9:00 PM54 °FScattered clouds.8 mph88%30.27 "HgN/A
8:30 PM54 °FScattered clouds.9 mph88%30.24 "HgN/A
8:00 PM55 °FScattered clouds.12 mph82%30.24 "HgN/A
7:30 PM55 °FBroken clouds.8 mph82%30.24 "HgN/A
7:00 PM57 °FBroken clouds.10 mph72%30.24 "HgN/A
6:30 PM57 °FScattered clouds.13 mph77%30.24 "HgN/A
6:00 PM57 °FBroken clouds.13 mph77%30.24 "HgN/A
Weather by CustomWeather, © 2015

See weather overviewHow to use our weather pages